HFM777 FACT-AT98

Flight info

Callsign HFM777
Flight time N/A
Altitude 34000
Route IMSOM1B IMSOM UQ36 APKIN DCT ITLIK DCT 37S013E 41S012E 48S011E/N0470F360 54S010E 62S009E/N0476F380 68S008E DCT 71S008E
Aircraft A343/H-SDE2E3FGHIJ4J5M1RWXY/LB1D1

Departure

Time N/A
Airport Cape Town International Airport (FACT)

Arrival

Time 2026-04-30 20:26
Airport (Duplicate)Wolf's Fang Runway (AT98)
Time Latitude Longitude Altitude Speed Heading
2026-04-30 18:45 -60.03680 9.28985 35413 ft 439 kts 190°
2026-04-30 18:45 -60.06735 9.28562 35414 ft 440 kts 190°
2026-04-30 18:46 -60.12835 9.27711 35398 ft 440 kts 191°
2026-04-30 18:46 -60.18939 9.26855 35400 ft 440 kts 190°
2026-04-30 18:47 -60.25057 9.25996 35388 ft 441 kts 190°
2026-04-30 18:47 -60.31174 9.25135 35384 ft 441 kts 190°
2026-04-30 18:48 -60.37299 9.24269 35371 ft 441 kts 190°
2026-04-30 18:48 -60.43415 9.23402 35405 ft 441 kts 190°
2026-04-30 18:49 -60.49547 9.22527 35364 ft 442 kts 190°
2026-04-30 18:49 -60.55681 9.21650 35351 ft 443 kts 190°
2026-04-30 18:50 -60.61828 9.20768 35342 ft 442 kts 190°
2026-04-30 18:50 -60.67969 9.19884 35335 ft 442 kts 190°
2026-04-30 18:51 -60.74110 9.18996 35357 ft 443 kts 190°
2026-04-30 18:51 -60.80258 9.18103 35322 ft 443 kts 190°
2026-04-30 18:52 -60.86411 9.17206 35323 ft 443 kts 190°
2026-04-30 18:52 -60.92567 9.16306 35307 ft 443 kts 190°
2026-04-30 18:53 -60.98719 9.15402 35310 ft 443 kts 190°
2026-04-30 18:53 -61.04876 9.14494 35316 ft 444 kts 190°
2026-04-30 18:54 -61.11043 9.13580 35302 ft 444 kts 190°
2026-04-30 18:54 -61.17212 9.12664 35287 ft 445 kts 190°
2026-04-30 18:55 -61.23386 9.11743 35291 ft 445 kts 190°
2026-04-30 18:55 -61.31597 9.10514 35259 ft 444 kts 190°
2026-04-30 18:56 -61.40856 9.09117 35259 ft 445 kts 190°
2026-04-30 18:57 -61.50121 9.07712 35255 ft 445 kts 190°
2026-04-30 18:57 -61.56303 9.06771 35238 ft 445 kts 190°
2026-04-30 18:58 -61.65565 9.05352 35242 ft 445 kts 190°
2026-04-30 18:59 -61.74840 9.03923 35233 ft 446 kts 190°
2026-04-30 19:00 -61.87179 9.02044 35215 ft 446 kts 189°
2026-04-30 19:01 -61.99583 9.00076 35204 ft 446 kts 190°
2026-04-30 19:02 -62.08870 8.98766 35201 ft 446 kts 189°
2026-04-30 19:03 -62.21228 8.97156 35196 ft 446 kts 189°
2026-04-30 19:04 -62.33617 8.95477 35180 ft 447 kts 189°
2026-04-30 19:05 -62.46039 8.93778 35169 ft 447 kts 189°
2026-04-30 19:06 -62.58445 8.92068 35165 ft 447 kts 189°
2026-04-30 19:06 -62.67760 8.90774 35145 ft 447 kts 189°
2026-04-30 19:07 -62.77065 8.89474 35146 ft 447 kts 189°
2026-04-30 19:08 -62.89428 8.87733 35137 ft 447 kts 189°
2026-04-30 19:09 -62.98733 8.86413 35129 ft 447 kts 189°
2026-04-30 19:09 -63.04944 8.85528 35127 ft 447 kts 189°
2026-04-30 19:10 -63.17362 8.83746 35156 ft 447 kts 189°
2026-04-30 19:11 -63.26673 8.82399 35118 ft 447 kts 189°
2026-04-30 19:12 -63.32887 8.81496 35119 ft 447 kts 189°
2026-04-30 19:12 -63.39098 8.80589 35110 ft 447 kts 189°
2026-04-30 19:13 -63.51474 8.78770 35093 ft 447 kts 189°
2026-04-30 19:14 -63.57696 8.77849 35096 ft 448 kts 189°
2026-04-30 19:14 -63.63908 8.76926 35085 ft 448 kts 189°
2026-04-30 19:15 -63.70132 8.75998 35085 ft 448 kts 189°
2026-04-30 19:15 -63.79461 8.74598 35113 ft 448 kts 189°
2026-04-30 19:16 -63.85687 8.73659 35070 ft 448 kts 189°
2026-04-30 19:17 -63.95012 8.72247 35070 ft 442 kts 189°
2026-04-30 19:17 -64.04070 8.70872 35056 ft 438 kts 189°
2026-04-30 19:18 -64.13314 8.69424 35033 ft 450 kts 189°
2026-04-30 19:19 -64.19605 8.68450 35041 ft 454 kts 189°
2026-04-30 19:19 -64.29028 8.67004 35029 ft 450 kts 189°
2026-04-30 19:20 -64.35252 8.66035 35018 ft 450 kts 189°
2026-04-30 19:21 -64.44653 8.64549 35034 ft 452 kts 189°
2026-04-30 19:22 -64.57158 8.62568 35013 ft 452 kts 189°
2026-04-30 19:23 -64.75976 8.59551 35002 ft 452 kts 189°
2026-04-30 19:24 -64.85402 8.58023 34985 ft 453 kts 189°
2026-04-30 19:25 -65.01107 8.55455 34981 ft 452 kts 189°
2026-04-30 19:26 -65.13665 8.53379 34966 ft 453 kts 189°
2026-04-30 19:27 -65.23057 8.51814 34968 ft 453 kts 189°
2026-04-30 19:28 -65.32518 8.50225 34951 ft 453 kts 189°
2026-04-30 19:29 -65.45055 8.48102 34932 ft 454 kts 189°
2026-04-30 19:30 -65.57649 8.45950 34910 ft 454 kts 189°
2026-04-30 19:31 -65.70244 8.43777 34956 ft 453 kts 189°
2026-04-30 19:31 -65.79674 8.42135 34899 ft 453 kts 189°
2026-04-30 19:32 -65.85961 8.41033 34900 ft 453 kts 189°
2026-04-30 19:32 -65.92251 8.39926 34881 ft 453 kts 189°
2026-04-30 19:33 -65.98546 8.38813 34882 ft 453 kts 189°
2026-04-30 19:33 -66.04838 8.37694 34880 ft 454 kts 189°
2026-04-30 19:34 -66.11096 8.36575 34865 ft 454 kts 189°
2026-04-30 19:35 -66.20556 8.34875 34849 ft 454 kts 189°
2026-04-30 19:35 -66.26865 8.33735 34849 ft 455 kts 189°
2026-04-30 19:36 -66.33176 8.32588 34832 ft 454 kts 189°
2026-04-30 19:36 -66.42642 8.30855 34821 ft 455 kts 189°
2026-04-30 19:37 -66.48963 8.29691 34815 ft 455 kts 189°
2026-04-30 19:37 -66.55276 8.28523 34806 ft 455 kts 189°
2026-04-30 19:38 -66.61602 8.27347 34805 ft 455 kts 189°
2026-04-30 19:38 -66.67920 8.26166 34831 ft 456 kts 189°
2026-04-30 19:39 -66.74236 8.24980 34789 ft 455 kts 189°
2026-04-30 19:39 -66.79458 8.23993 34790 ft 456 kts 189°
2026-04-30 19:40 -66.85779 8.22794 34792 ft 455 kts 189°
2026-04-30 19:40 -66.92065 8.21596 34792 ft 456 kts 189°
2026-04-30 19:41 -66.98385 8.20385 34779 ft 456 kts 189°
2026-04-30 19:41 -67.04716 8.19165 34781 ft 455 kts 189°
2026-04-30 19:42 -67.11037 8.17941 34767 ft 456 kts 189°
2026-04-30 19:42 -67.17365 8.16709 34767 ft 456 kts 188°
2026-04-30 19:43 -67.23694 8.15471 34752 ft 456 kts 189°
2026-04-30 19:44 -67.33195 8.13599 34752 ft 456 kts 189°
2026-04-30 19:44 -67.39524 8.12344 34747 ft 457 kts 189°
2026-04-30 19:45 -67.45863 8.11079 34766 ft 457 kts 189°
2026-04-30 19:45 -67.52206 8.09808 34755 ft 457 kts 189°
2026-04-30 19:46 -67.58548 8.08531 34751 ft 457 kts 188°
2026-04-30 19:46 -67.64892 8.07246 34734 ft 457 kts 189°
2026-04-30 19:47 -67.70159 8.06173 34754 ft 457 kts 188°
2026-04-30 19:47 -67.76517 8.04870 34726 ft 459 kts 188°
2026-04-30 19:48 -67.83927 8.03345 34727 ft 460 kts 188°
2026-04-30 19:48 -67.89267 8.02241 34719 ft 459 kts 188°
2026-04-30 19:49 -67.95642 8.00916 34719 ft 460 kts 188°
2026-04-30 19:49 -68.05229 7.99427 34711 ft 463 kts 183°
2026-04-30 19:50 -68.11651 7.99664 34733 ft 466 kts 182°
2026-04-30 19:50 -68.18135 7.99928 34733 ft 466 kts 183°
2026-04-30 19:51 -68.24611 8.00017 34736 ft 465 kts 183°
2026-04-30 19:51 -68.31096 8.00019 34725 ft 465 kts 184°
2026-04-30 19:52 -68.37571 8.00006 34728 ft 465 kts 183°
2026-04-30 19:52 -68.44045 8.00000 34725 ft 465 kts 183°
2026-04-30 19:53 -68.50523 7.99999 34725 ft 465 kts 183°
2026-04-30 19:53 -68.56992 7.99999 34725 ft 465 kts 183°
2026-04-30 19:54 -68.63429 7.99999 34728 ft 465 kts 183°
2026-04-30 19:54 -68.69906 7.99999 34737 ft 465 kts 183°
2026-04-30 19:55 -68.76384 7.99998 34726 ft 466 kts 183°
2026-04-30 19:55 -68.82871 7.99999 34735 ft 466 kts 183°
2026-04-30 19:56 -68.89348 7.99999 34735 ft 466 kts 183°
2026-04-30 19:56 -68.95850 7.99999 34748 ft 466 kts 183°
2026-04-30 19:57 -69.02338 7.99999 34767 ft 466 kts 183°
2026-04-30 19:57 -69.08816 8.00000 34781 ft 465 kts 183°
2026-04-30 19:58 -69.15278 8.00001 34780 ft 464 kts 183°
2026-04-30 19:58 -69.21724 8.00000 34782 ft 464 kts 183°
2026-04-30 19:59 -69.28174 7.99999 34785 ft 464 kts 183°
2026-04-30 20:00 -69.37855 7.99999 34807 ft 464 kts 183°
2026-04-30 20:00 -69.44307 7.99999 34803 ft 463 kts 183°
2026-04-30 20:01 -69.53982 7.99999 34814 ft 464 kts 183°
2026-04-30 20:01 -69.60435 7.99999 34814 ft 464 kts 183°
2026-04-30 20:02 -69.70108 7.99999 34841 ft 464 kts 182°
2026-04-30 20:03 -69.79728 8.00000 34840 ft 462 kts 182°
2026-04-30 20:03 -69.86206 8.00000 34835 ft 462 kts 183°
2026-04-30 20:04 -69.92530 8.00005 34845 ft 456 kts 182°
2026-04-30 20:05 -70.02063 8.00001 34677 ft 456 kts 183°
2026-04-30 20:05 -70.05234 7.99998 34542 ft 457 kts 183°
2026-04-30 20:05 -70.11582 8.00001 34327 ft 454 kts 183°
2026-04-30 20:06 -70.14743 8.00001 34016 ft 455 kts 182°
2026-04-30 20:06 -70.17913 7.99999 33580 ft 456 kts 182°
2026-04-30 20:06 -70.21078 7.99999 33115 ft 455 kts 183°
2026-04-30 20:06 -70.24246 8.00000 32629 ft 453 kts 183°
2026-04-30 20:07 -70.27392 7.99999 32087 ft 453 kts 182°
2026-04-30 20:07 -70.30534 8.00001 31569 ft 450 kts 183°
2026-04-30 20:07 -70.36755 8.00003 30571 ft 444 kts 182°
2026-04-30 20:08 -70.39835 8.00003 30129 ft 440 kts 181°
2026-04-30 20:08 -70.42851 8.00001 26889 ft 437 kts 180°
2026-04-30 20:08 -70.45911 7.99999 29281 ft 446 kts 181°
2026-04-30 20:08 -70.49022 7.99998 28782 ft 444 kts 181°
2026-04-30 20:09 -70.52093 7.99998 28230 ft 439 kts 181°
2026-04-30 20:09 -70.55090 7.99999 27699 ft 421 kts 180°
2026-04-30 20:09 -70.60766 8.00000 26721 ft 405 kts 180°
2026-04-30 20:10 -70.66423 7.99995 25722 ft 404 kts 179°
2026-04-30 20:10 -70.69220 7.99992 25234 ft 401 kts 178°
2026-04-30 20:10 -70.72002 7.99991 24774 ft 399 kts 179°
2026-04-30 20:11 -70.77525 7.99988 23850 ft 395 kts 177°
2026-04-30 20:11 -70.80264 7.99987 23398 ft 393 kts 177°
2026-04-30 20:11 -70.82990 7.99988 22945 ft 391 kts 177°
2026-04-30 20:12 -70.88423 7.99989 21866 ft 390 kts 176°
2026-04-30 20:12 -70.91134 7.99991 21271 ft 390 kts 176°
2026-04-30 20:12 -70.93847 7.99995 20684 ft 389 kts 176°
2026-04-30 20:13 -70.96554 7.99999 20109 ft 389 kts 177°
2026-04-30 20:13 -70.99247 8.00208 19570 ft 386 kts 172°
2026-04-30 20:13 -71.01896 8.01158 19132 ft 381 kts 168°
2026-04-30 20:13 -71.04503 8.02335 18693 ft 377 kts 168°
2026-04-30 20:14 -71.07079 8.03609 18247 ft 373 kts 167°
2026-04-30 20:14 -71.09627 8.04937 17836 ft 370 kts 168°
2026-04-30 20:14 -71.12152 8.06282 17435 ft 367 kts 167°
2026-04-30 20:14 -71.14660 8.07627 16976 ft 364 kts 167°
2026-04-30 20:15 -71.17113 8.08940 16504 ft 361 kts 166°
2026-04-30 20:15 -71.19612 8.10276 16041 ft 359 kts 166°
2026-04-30 20:15 -71.22037 8.11572 15572 ft 357 kts 167°
2026-04-30 20:15 -71.24477 8.12876 15127 ft 355 kts 167°
2026-04-30 20:16 -71.26908 8.14176 14697 ft 353 kts 167°
2026-04-30 20:16 -71.29325 8.15469 14257 ft 352 kts 167°
2026-04-30 20:16 -71.31762 8.16778 13851 ft 349 kts 167°
2026-04-30 20:16 -71.34148 8.18060 13474 ft 345 kts 166°
2026-04-30 20:17 -71.36471 8.19306 13003 ft 332 kts 167°
2026-04-30 20:17 -71.38668 8.20480 12489 ft 318 kts 166°
2026-04-30 20:17 -71.40815 8.21633 11993 ft 308 kts 166°
2026-04-30 20:17 -71.42910 8.22771 11736 ft 303 kts 166°
2026-04-30 20:18 -71.44975 8.23901 11484 ft 298 kts 166°
2026-04-30 20:18 -71.46988 8.25000 11233 ft 290 kts 166°
2026-04-30 20:18 -71.48948 8.26071 10980 ft 282 kts 166°
2026-04-30 20:18 -71.50859 8.27118 10737 ft 277 kts 165°
2026-04-30 20:19 -71.52755 8.28164 10486 ft 275 kts 165°
2026-04-30 20:19 -71.54001 8.28855 10329 ft 275 kts 165°
2026-04-30 20:19 -71.56515 8.30250 10006 ft 274 kts 165°
2026-04-30 20:19 -71.58394 8.31296 9708 ft 274 kts 165°
2026-04-30 20:20 -71.60250 8.32320 9354 ft 266 kts 165°
2026-04-30 20:20 -71.61981 8.33760 9014 ft 249 kts 149°
2026-04-30 20:20 -71.63329 8.36801 8650 ft 230 kts 128°
2026-04-30 20:20 -71.64326 8.40609 8279 ft 220 kts 121°
2026-04-30 20:21 -71.65153 8.44604 7919 ft 213 kts 117°
2026-04-30 20:21 -71.65882 8.48635 7600 ft 207 kts 116°
2026-04-30 20:21 -71.66553 8.52573 7282 ft 199 kts 116°
2026-04-30 20:21 -71.67194 8.56385 7010 ft 192 kts 117°
2026-04-30 20:22 -71.67794 8.60036 6820 ft 181 kts 115°
2026-04-30 20:22 -71.68278 8.63630 6584 ft 172 kts 108°
2026-04-30 20:22 -71.68525 8.67196 6157 ft 160 kts 99°
2026-04-30 20:22 -71.68590 8.70592 6025 ft 154 kts 86°
2026-04-30 20:23 -71.68239 8.73920 6103 ft 165 kts 71°
2026-04-30 20:23 -71.67727 8.77115 5983 ft 165 kts 65°
2026-04-30 20:23 -71.66974 8.79865 5832 ft 167 kts 44°
2026-04-30 20:23 -71.65906 8.81297 5586 ft 167 kts 17°
2026-04-30 20:24 -71.64777 8.81859 5396 ft 164 kts
2026-04-30 20:24 -71.63628 8.81950 5227 ft 166 kts
2026-04-30 20:24 -71.62471 8.81825 5091 ft 167 kts
2026-04-30 20:24 -71.61311 8.81709 4957 ft 166 kts
2026-04-30 20:25 -71.59017 8.81629 4753 ft 165 kts 360°
2026-04-30 20:25 -71.57864 8.81308 4647 ft 166 kts 359°
2026-04-30 20:26 -71.55560 8.80695 4292 ft 166 kts 356°
2026-04-30 20:26 -71.53898 8.80251 4128 ft 49 kts 354°
2026-04-30 20:26 -71.53592 8.80160 4123 ft 45 kts 355°
2026-04-30 20:27 -71.52959 8.79993 4102 ft 43 kts 355°
2026-04-30 20:27 -71.52729 8.80099 4089 ft 7 kts 68°
2026-04-30 20:28 -71.52685 8.80229 4086 ft 1 kts 345°
2026-04-30 20:28 -71.52684 8.80227 4086 ft 0 kts 341°